Regional Weather Roundup
Issued by NWS Green Bay, WI

Home | Current Version | Previous Version | Graphics & Text | Print | Product List | Glossary Off
Versions: 1 2 3 4 5 6 7 8 9 10 11 12 13 14 15 16 17 18 19 20 21 22 23 24 25 26 27 28 29 30 31 32 33 34 35 36 37 38 39 40 41 42 43 44 45 46 47 48 49 50

000
ASUS43 KGRB 222201
RWRGRB

NORTH-CENTRAL AND NORTHEAST WISCONSIN REGIONAL WEATHER ROUNDUP
NATIONAL WEATHER SERVICE GREEN BAY WI
500 PM CDT THU JUN 22 2017

WIZ005-009-010>012-018-019-222300-
NORTH CENTRAL WISCONSIN

CITY           SKY/WX    TMP DP  RH WIND       PRES   REMARKS
IRONWOOD       CLOUDY    71  52  50 W10       29.71R
MANITOWISH WTR NOT AVBL
ARBOR VITAE    NOT AVBL
EAGLE RIVER    NOT AVBL
LAND O LAKES   CLOUDY    66  61  85 W5        29.73F
RHINELANDER    LGT RAIN  65  64  97 SW5       29.73F
PHILLIPS       NOT AVBL
ANTIGO         NOT AVBL
TOMAHAWK       NOT AVBL
MERRILL        CLOUDY    67  65  93 CALM      29.73S
$$

WIZ013-073-222300-
NORTHEAST WISCONSIN

CITY           SKY/WX    TMP DP  RH WIND       PRES   REMARKS
IRON MOUNTAIN  CLOUDY    69  62  78 VRB7      29.68R
MARINETTE      LGT RAIN  68  66  93 W3        29.70R
$$

WIZ017-030-035>037-045-222300-
CENTRAL WISCONSIN

CITY           SKY/WX    TMP DP  RH WIND       PRES   REMARKS
MEDFORD        NOT AVBL
WAUSAU         LGT RAIN  66  64  93 S3        29.71S
MOSINEE        LGT RAIN  66  64  94 S8        29.76R FOG
MARSHFIELD     LGT RAIN  66  64  93 S7        29.72S FOG
WISC RAPIDS    RAIN      68  66  93 SW6       29.76R FOG
STEVENS POINT  NOT AVBL
WAUPACA        LGT RAIN  71  70  96 SW3       29.74R
SHAWANO        NOT AVBL
CLINTONVILLE   NOT AVBL
WAUTOMA        LGT RAIN  69  67  93 CALM      29.74F
$$

WIZ038-039-048-051-222300-
FOX VALLEY

CITY           SKY/WX    TMP DP  RH WIND       PRES   REMARKS
NWS GREEN BAY  LGT RAIN  72  70  93 W7        29.72F
APPLETON       LGT RAIN  70  68  94 SW10      29.72F
OSHKOSH        LGT RAIN  72  66  81 SW6       29.74S
FOND DU LAC    CLOUDY    73  64  73 W3        29.74F
$$

WIZ022-050-052-222300-
EAST CENTRAL WISCONSIN

CITY           SKY/WX    TMP DP  RH WIND       PRES   REMARKS
EPHRAIM        NOT AVBL
WASHINGTON ISL NOT AVBL
STURGEON BAY   LGT RAIN  69  67  93 SW7         N/A
MANITOWOC      NOT AVBL
SHEBOYGAN      CLOUDY    75  67  76 W6        29.75R
$$

LMZ563-521-522-541>543-222300-
LAKESHORE

STATION/POSITION TIME  TEMP    WIND        PRES    VSBY  WAVE
                       AIR SEA DIR/SP/G                  HT/PER
                 (UTC) (F)     (DEG/KT/KT) (MB)    (MI)  (FT/S)
SHEBOYGAN LKSHOR 2100   62     180/ 10/ 11 1006.8F
KEWAUNEE LKSHORE 2130   74     260/  3/  6 1006.0R
NORTHPORT PIER   2140   68     180/  4/  7 1005.4S
N MID LAKE BUOY  2050   59 55  220/ 12/ 14 1006.1F         2/ 5
CHAMBERS ISLAND  2140   67     180/  5/ 14 1005.4R
MENOMINEE LKSHOR 2124          190/  8/ 11 1004.8
$$




USA.gov is the U.S. government's official web portal to all federal, state and local government web resources and services.